RH
7 4 3 3 2 2 2 2 2 2 3 4 4 3 2 2 2 2 1 1 1 18 55 50 46 20 13 7 5 5 6 6 6 6 7 10 49 96 95 96 96 93 98 97 92 76 90
9 6 4 4 3 2 2 2 2 3 4 5 6 6 4 3 2 2 1 1 1 1 33 52 49 45 16 10 6 6 6 8 8 7 8 12 30 76 95 85 91 100 98 96 96 90 83
10 9 6 4 4 3 3 2 2 3 4 5 5 5 5 5 3 3 3 2 1 1 2 6 37 48 30 15 8 7 7 10 11 10 10 20 39 63 77 93 83 94 88 88 92 82 81
9 10 10 6 5 4 4 3 2 3 4 4 5 5 5 5 5 3 3 3 3 1 2 2 11 42 54 20 13 8 7 11 14 13 14 27 50 82 82 78 90 97 93 96 97 96 90
13 10 11 10 7 6 5 5 4 3 3 3 4 5 4 4 5 5 4 4 4 3 2 2 7 27 45 38 20 12 8 12 13 13 14 33 46 87 94 94 99 94 90 96 84 95 94
23 15 11 12 10 8 7 6 5 5 4 4 4 5 5 4 4 4 4 4 4 4 2 2 2 2 4 31 35 17 10 11 16 13 14 32 51 85 94 95 90 81 80 74 90 86 89
45 24 16 10 12 10 9 8 7 6 5 5 5 5 5 5 4 4 4 4 4 4 4 2 2 2 2 7 38 27 14 10 16 14 14 24 48 67 87 91 92 83 88 82 79 77 66
53 29 26 19 11 11 10 9 8 7 6 6 5 5 5 4 4 4 4 4 4 4 4 3 2 2 2 2 12 40 21 12 12 19 15 18 32 51 59 68 70 68 63 71 70 72 68
63 49 32 28 20 11 10 10 9 8 7 6 6 5 5 4 4 4 4 4 4 5 4 3 3 2 1 1 1 20 37 19 12 13 21 17 19 34 45 51 54 55 54 53 66 73 71
63 80 72 54 29 20 13 10 9 9 8 7 6 5 5 4 4 5 5 4 4 5 5 4 3 2 2 3 1 1 41 24 19 12 12 20 22 20 25 30 34 35 46 56 64 64 62
59 78 97 93 38 32 27 19 14 9 8 7 7 6 14 13 10 6 5 6 5 5 5 4 4 4 3 4 2 1 16 46 25 20 14 11 14 22 23 24 26 28 33 38 36 33 30
34 62 81 95 72 64 34 31 25 20 15 15 20 26 30 30 30 29 12 9 9 6 6 4 4 4 4 3 3 2 12 40 34 25 22 17 12 12 12 16 20 22 22 22 22 21 21
10 39 66 83 91 72 44 37 34 28 24 25 27 29 30 32 31 30 29 16 11 6 5 5 4 5 4 3 3 3 3 19 41 38 28 24 20 15 13 13 14 16 18 18 19 20 27
9 13 57 78 95 90 62 55 49 53 47 40 34 34 35 36 36 34 32 22 10 10 6 6 5 5 4 4 3 4 5 5 14 40 43 31 28 24 20 17 16 20 22 26 29 27 28
11 7 19 62 75 97 77 51 60 67 72 68 60 47 40 39 38 35 36 20 9 8 6 6 6 5 4 4 4 4 6 8 10 29 45 40 34 30 26 23 22 26 32 37 37 44 64
12 10 7 29 69 80 94 82 81 75 74 77 63 63 53 46 45 42 39 12 8 9 7 6 6 6 6 4 4 4 5 10 16 40 49 44 40 35 32 28 30 32 39 48 56 54 55
11 12 9 9 36 66 78 95 97 90 90 75 68 68 66 58 51 49 36 9 8 9 7 7 7 7 6 5 5 5 7 12 27 40 48 48 43 43 39 40 42 48 47 50 56 62 64
11 14 11 8 13 50 70 68 91 83 74 68 74 68 64 63 56 46 26 9 8 10 8 7 7 8 8 7 6 5 7 15 40 54 55 53 48 49 49 47 42 45 46 46 47 50 59
10 14 12 11 7 22 54 69 61 62 64 74 74 76 65 59 52 32 19 10 10 10 8 7 7 8 8 8 8 6 11 26 43 54 56 56 57 56 49 46 44 40 42 52 52 32 6
10 12 14 12 10 8 19 50 62 65 63 64 86 78 63 63 48 27 19 12 10 10 8 7 7 8 8 8 7 4 11 31 45 51 55 63 67 73 61 50 36 19 5 2 3 3 3
14 15 14 14 12 9 8 22 34 50 56 61 73 57 60 65 49 28 22 15 10 11 8 7 7 8 9 8 5 3 8 22 38 50 62 77 75 61 46 28 5 4 5 6 6 5 6
14 14 15 15 16 11 8 8 15 21 36 53 60 58 58 65 53 32 27 19 13 12 10 7 7 9 9 8 4 3 4 14 26 47 42 40 33 22 6 8 9 9 9 8 8 8 10
17 13 12 15 17 14 10 7 8 8 15 28 42 44 51 64 59 38 29 24 19 13 11 7 7 9 9 6 3 2 2 6 10 17 26 22 9 9 10 12 12 11 9 10 10 12 12
20 12 17 18 19 17 12 8 6 6 6 10 23 28 34 62 60 40 31 26 23 18 13 7 6 9 8 5 3 2 2 2 3 5 7 10 12 13 14 14 13 11 11 12 13 14 15
20 16 14 16 17 18 14 9 7 6 6 6 10 17 30 60 62 41 33 27 26 23 15 9 7 9 7 4 3 2 3 4 7 8 11 14 16 18 17 16 15 13 14 16 17 17 19
16 18 14 16 17 17 17 12 8 7 6 6 6 10 35 58 64 45 37 30 26 23 19 12 7 9 7 4 3 4 5 6 6 10 15 18 19 19 18 19 18 18 19 20 20 20 21
13 18 15 16 16 16 17 15 11 8 7 6 5 8 29 59 65 48 39 34 30 28 24 14 6 10 7 4 4 5 5 5 6 15 18 20 21 19 18 21 21 22 23 23 21 20 20
11 16 17 14 17 17 17 17 14 9 7 6 5 7 21 52 63 54 42 37 31 30 28 18 7 9 9 4 4 5 4 5 12 17 19 21 22 21 21 25 25 24 24 24 23 22 23
10 13 18 14 15 15 19 17 15 11 6 6 5 6 17 44 61 59 46 41 35 28 31 24 8 8 11 6 4 4 4 12 15 17 19 21 22 24 23 27 27 28 30 29 25 24 27
Wind_Speed
40 39 38 36 34 32 29 28 27 25 23 20 16 13 11 10 11 11 12 12 17 21 22 20 16 14 14 18 18 17 20 22 24 27 28 30 36 35 33 31 30 28 25 25 23 17 15
41 40 40 38 36 34 33 31 29 28 26 22 18 15 12 10 8 6 7 9 11 18 22 22 20 16 15 19 17 18 19 22 24 27 30 30 35 37 35 34 33 32 31 29 25 21 19
44 42 40 40 39 37 35 33 32 30 27 24 20 17 14 12 9 7 4 6 6 11 19 21 23 20 18 17 16 18 20 21 22 27 29 32 34 36 36 35 36 37 34 29 27 23 25
44 45 42 41 41 39 37 36 34 33 30 28 25 20 16 13 10 8 6 3 4 5 11 14 19 21 22 15 16 16 19 22 23 27 31 32 35 36 33 35 37 37 41 29 29 25 30
47 46 46 42 42 42 40 38 36 35 34 31 28 25 20 16 13 11 8 6 4 4 7 13 16 19 25 17 16 15 20 23 23 28 31 30 33 34 32 35 35 36 35 26 31 32 32
45 46 47 46 44 43 42 40 39 37 36 33 31 28 24 20 16 14 11 9 6 6 7 11 16 20 21 20 19 16 19 24 22 25 31 32 32 36 34 35 33 34 35 35 30 35 36
47 45 45 45 46 45 43 42 40 39 38 35 33 30 26 23 21 17 14 12 10 8 8 9 12 19 19 18 22 18 19 24 25 25 30 33 32 33 35 36 36 36 37 37 33 35 35
52 47 45 44 44 46 46 43 42 40 40 38 36 33 30 26 24 22 17 14 12 11 9 8 10 16 14 18 21 21 20 22 27 24 26 32 33 33 34 36 37 37 35 34 33 34 35
55 50 47 44 43 43 45 45 43 42 41 39 37 36 32 29 27 25 21 18 14 13 11 9 10 14 10 11 20 24 23 22 24 27 25 28 32 34 36 38 37 37 36 34 33 33 34
60 56 50 43 42 42 41 41 43 42 42 39 37 36 32 31 29 26 23 21 19 15 13 10 9 11 11 14 22 26 27 23 22 25 29 29 29 33 37 37 39 36 36 35 35 36 39
64 59 59 53 40 42 40 39 38 38 40 37 36 34 29 27 26 25 25 22 21 18 15 10 9 9 11 11 16 25 27 23 21 23 26 27 32 36 37 34 36 36 37 37 37 38 37
66 61 56 56 48 41 41 39 37 36 37 36 36 35 30 27 24 20 19 22 22 20 17 11 9 8 7 7 7 18 24 25 23 22 22 24 28 32 34 37 37 37 36 37 37 35 34
65 63 58 56 54 46 41 40 37 35 35 33 33 33 30 28 24 25 19 21 25 24 18 15 12 8 5 5 5 5 15 24 23 21 20 21 22 24 26 28 32 33 33 35 35 32 31
67 63 62 58 55 54 48 43 40 35 34 30 29 31 29 28 28 26 22 25 28 24 22 18 14 11 7 5 6 6 7 18 25 23 21 19 19 21 22 24 24 24 25 26 28 26 24
70 65 63 61 57 56 50 47 44 39 34 33 33 31 28 29 26 27 23 29 30 26 23 20 16 14 11 8 7 9 9 10 18 24 20 16 16 18 18 18 20 20 18 18 20 22 23
73 68 64 62 59 56 58 53 45 45 40 41 38 36 33 30 28 28 27 31 31 28 26 23 16 14 13 11 10 10 11 9 13 19 15 14 13 15 16 17 17 16 16 17 19 24 26
77 71 66 61 60 57 54 53 52 46 41 41 39 39 36 33 29 29 30 33 31 30 27 24 18 15 13 12 11 12 12 9 9 14 14 14 13 14 16 17 17 17 19 20 22 23 26
82 75 69 63 60 60 57 52 46 44 42 41 41 37 35 36 33 31 31 32 31 30 28 25 21 17 14 12 12 12 9 6 6 9 11 12 13 14 14 15 17 19 21 22 24 25 28
86 79 73 67 62 61 59 54 50 47 45 41 42 35 34 34 33 31 30 32 31 30 29 26 22 19 15 13 13 11 8 7 7 8 10 14 13 12 12 15 17 19 20 23 27 29 30
89 83 77 71 65 61 58 55 54 50 47 41 39 36 34 34 31 30 30 32 31 30 29 27 23 19 16 14 13 11 9 12 8 8 10 11 10 10 11 13 19 22 23 22 22 23 24
91 86 81 75 69 64 59 55 53 50 48 43 37 35 34 32 31 32 30 31 30 29 27 27 23 21 18 14 14 11 12 15 17 13 14 13 12 11 14 17 14 13 12 14 16 16 16
92 88 84 78 71 66 62 57 53 49 47 46 43 40 36 33 34 32 29 28 29 28 27 26 24 22 19 16 15 12 14 18 22 20 18 17 14 12 9 9 10 12 14 15 15 14 16
91 90 85 80 74 69 64 59 54 50 47 45 44 40 38 35 35 33 30 28 29 29 28 28 26 23 20 18 15 12 15 15 17 17 14 11 10 9 9 11 13 14 14 14 14 16 17
91 91 86 82 76 70 65 61 56 52 47 44 42 40 39 36 36 34 32 32 29 27 28 27 26 26 22 20 14 13 15 12 11 10 9 8 7 10 12 14 13 13 12 14 15 16 18
90 91 88 84 79 74 67 62 58 53 49 44 41 39 39 38 37 35 35 33 28 27 28 26 27 26 22 19 14 14 13 12 12 10 7 5 8 10 12 13 12 11 12 13 14 16 18
89 90 88 84 82 77 70 63 58 54 50 45 42 39 39 39 38 36 35 32 28 26 27 26 29 27 22 20 18 16 15 13 11 9 6 7 8 10 12 12 11 11 11 12 14 16 21
92 89 87 85 83 78 72 65 60 56 52 47 43 40 40 39 38 37 34 32 28 25 26 27 29 28 26 23 21 19 16 13 11 8 8 8 8 10 12 12 10 11 12 14 16 19 22
94 88 87 86 84 80 74 68 62 58 54 49 44 41 40 40 39 37 34 31 28 26 26 26 29 29 27 24 22 21 18 15 12 11 11 10 9 10 11 11 10 11 13 15 18 21 24
96 89 87 86 85 82 75 70 64 60 55 50 46 43 42 41 40 38 34 31 29 27 26 27 31 31 28 24 24 23 19 16 14 14 13 12 11 10 11 11 11 13 15 18 21 24 27
Wind_Direction
229 227 223 222 217 214 212 210 206 201 198 197 198 193 197 207 225 239 251 253 242 228 226 232 237 239 243 237 230 230 227 228 226 222 221 224 221 220 226 229 235 239 245 253 260 269 276
227 225 222 221 217 215 211 209 208 205 201 200 204 202 204 208 214 238 253 256 250 232 229 229 233 235 242 243 232 232 226 226 230 228 222 221 222 222 227 235 240 242 240 246 255 264 278
228 224 221 220 217 215 213 208 210 209 206 205 206 210 208 211 213 230 250 261 263 236 229 228 228 229 239 243 238 231 230 231 234 232 226 223 221 228 228 233 240 247 251 254 259 269 272
230 226 222 220 218 214 212 211 209 212 213 212 210 212 213 213 213 224 239 277 269 260 234 228 223 225 238 234 240 233 229 231 237 229 225 223 221 227 235 238 243 254 258 258 263 256 268
227 227 224 219 219 216 213 211 210 211 215 215 217 213 217 217 216 227 236 254 284 295 250 227 222 224 238 230 240 236 231 230 235 232 227 225 224 227 235 243 248 258 276 260 265 282 264
225 225 223 223 219 218 216 212 211 211 213 214 217 219 219 223 224 226 236 246 264 288 280 237 229 228 236 231 232 236 233 231 234 234 228 224 226 227 234 247 248 253 261 267 276 275 280
228 224 224 222 222 220 219 216 213 213 213 215 217 221 223 226 232 231 233 243 254 272 296 251 236 237 232 229 230 234 234 234 235 233 229 228 228 231 237 242 248 254 260 266 271 279 284
223 222 224 220 223 222 221 218 216 216 216 217 219 222 227 228 233 235 233 240 249 262 287 264 243 242 239 233 233 231 235 235 235 235 233 230 232 235 240 245 249 254 259 266 270 273 277
218 217 221 218 222 222 222 220 220 218 219 219 221 223 225 230 234 236 237 237 248 253 270 259 252 242 241 247 241 231 232 233 237 236 234 234 235 239 244 247 252 256 261 264 268 271 275
216 214 215 222 218 219 218 217 220 221 221 218 222 223 226 229 233 235 237 240 246 244 256 263 252 251 255 255 239 229 229 232 232 238 239 235 236 239 245 249 255 257 262 265 270 272 275
216 218 220 216 215 215 214 211 212 216 219 217 220 220 215 218 226 233 237 237 238 235 247 250 243 247 263 265 241 228 229 233 233 236 243 243 240 241 245 249 256 261 264 268 272 276 282
214 215 216 216 211 217 211 209 206 208 211 210 212 207 204 213 219 231 234 233 233 232 233 238 232 255 259 266 254 233 231 235 240 242 244 245 246 248 249 251 254 259 264 269 272 276 280
214 212 212 212 211 213 210 204 200 202 204 206 209 209 208 221 228 237 245 241 231 229 230 233 239 249 267 267 270 260 242 238 244 250 250 247 248 251 254 252 254 257 262 267 271 277 282
213 211 211 210 213 210 211 204 201 205 202 204 211 207 210 225 236 241 245 240 232 231 226 228 236 242 256 287 295 296 271 250 245 247 250 254 257 258 259 257 257 258 261 270 279 283 290
213 211 210 210 210 209 210 211 211 213 214 220 223 219 213 222 233 242 247 234 230 226 226 226 234 240 253 267 289 293 291 258 243 245 253 255 260 265 266 264 262 261 270 275 280 284 289
212 211 210 209 208 212 215 213 215 221 225 231 229 228 226 227 232 243 242 233 225 223 223 225 229 240 249 259 280 295 295 282 245 239 246 248 250 255 259 264 268 271 276 275 276 287 293
211 211 210 208 208 209 214 214 219 221 223 223 225 226 226 227 230 236 236 231 222 222 220 223 221 230 246 261 276 293 300 282 244 241 245 247 244 251 258 262 269 276 279 281 285 289 295
210 210 210 209 207 208 210 210 217 214 216 219 216 215 226 231 230 228 230 225 219 220 219 218 220 224 237 255 270 283 293 259 216 228 246 255 255 258 262 269 272 275 282 285 286 290 293
207 209 209 209 207 208 209 209 210 213 215 220 212 214 220 220 215 218 221 221 217 217 217 217 216 221 231 246 262 270 270 225 209 230 246 245 254 263 262 265 275 279 284 287 290 294 297
204 207 208 209 207 208 208 208 210 213 215 218 215 210 217 215 210 213 216 218 216 216 216 215 216 218 225 242 256 259 240 214 209 228 232 226 226 252 273 284 292 293 295 297 299 303 306
203 204 206 206 207 207 207 207 210 211 213 216 216 213 218 213 210 210 213 216 216 215 215 215 214 218 225 239 253 250 244 225 215 220 217 225 237 257 281 294 296 303 310 309 307 308 310
203 202 204 205 206 206 206 206 209 209 210 214 215 219 218 213 212 210 213 215 217 213 214 215 215 219 225 237 247 251 244 233 220 221 224 240 260 277 274 283 297 301 304 303 308 310 314
204 200 202 204 204 206 206 205 206 208 209 213 215 216 215 210 211 212 210 213 217 213 213 215 215 220 225 233 246 247 238 232 229 229 235 250 247 255 282 297 300 307 303 309 315 319 321
204 199 201 202 203 204 204 204 204 207 210 211 213 212 213 208 211 212 210 214 217 217 212 215 216 220 225 231 236 233 222 212 195 186 196 223 271 296 301 300 298 300 308 315 320 322 322
203 201 200 201 201 202 203 203 203 206 210 210 211 208 208 206 209 209 210 213 216 220 218 213 215 220 224 228 221 214 198 187 185 194 210 252 279 286 292 295 298 305 312 321 324 319 318
202 201 198 200 201 202 202 203 202 204 209 209 209 207 205 206 209 211 210 212 213 219 219 214 213 219 222 221 210 202 198 199 205 214 234 254 271 286 293 296 306 311 317 322 317 318 322
200 200 199 199 200 201 201 202 201 202 206 208 207 207 204 205 208 212 211 211 211 218 220 216 211 218 222 217 209 208 210 216 214 221 236 253 271 290 294 299 304 308 314 313 317 322 323
199 198 199 198 199 200 199 201 201 201 204 207 206 206 203 204 209 211 211 210 209 216 218 217 214 217 222 219 214 215 220 224 217 224 235 252 268 290 296 300 303 307 312 317 323 327 329
196 196 198 197 198 199 199 199 200 201 204 205 205 205 203 204 210 211 212 210 210 215 218 217 216 218 222 221 218 223 219 218 222 228 237 249 264 286 294 297 299 310 316 321 325 329 331